Voltar ao catálogo

SL-16 DEB

LostLEO
NORAD 39905·DEBRIS·🇷🇺 Russia

Lançado Mar 26, 1993 de Baikonur Cosmodrome

Loading…

Próximas Passagens (próximas 24 horas)

TLE

ObsoletoSource: Space-Track

Época: Jan 28, 2023, 09:20 UTC

1 39905U 93016CF  23028.38920345  .00006098  00000-0  24275-2 0  9999
2 39905  70.9562 286.8660 0124613 241.1392 241.7052 14.24818853 19344

Acompanhe SL-16 DEB em tempo real com AllMySat

Download on the App Store